FENGYUN 1C DEB, 46987

Orbit data source: Space-Track

FENGYUN 1C DEB, 46987 is space debris in SSO originally from a launch on Mon, 10 May 1999 UTC launched from the Taiyaun Space Center, China (TSC). Fengyun 1C debris stems from the Chinese weather satellite Fengyun-1C, which was intentionally destroyed by a Chinese anti-satellite missile in 2007. This event dramatically increased the amount of space debris, with thousands of trackable fragments posing hazards to satellites and human spaceflight. The Fengyun 1C debris cloud has become a focal point in discussions about space sustainability and the need for international regulations to prevent the creation of new debris.

Loading next visibility...
Identifier
46987, 1999-025EZM
Orbit
SSO
Country
Flag of CNCN / PRC
Related business
Manufacturer
Unknown
Mission
Spacecraft
Bus & Motor
Unknown
Mass
Unknown
Launch date (UTC)
1999-05-10 (27 years ago)
Launch vehicle
Unknown
Launch site
Taiyaun Space Center, China (TSC)
Object type
Payload
Rocket body
Debris
Shape & HBR
Unknown shape, 0.1 m
Radar Cross Section
Small (<0.1 m²)

Expand to show TLE details & history
Last TLE update: 3 days ago

TLE from 3 days ago
0 FENGYUN 1C DEB
1 46987U 99025EZM 26170.60238678  .00006221  00000-0  16828-2 0  9993
2 46987  98.9163 315.5742 0033094 139.2830 221.0844 14.47798216600718
Epoch: 2026-06-19T14:27Z
TLE epoch observation values (Epoch: 2026-06-19T14:27:26.217Z)
Latitude
-0.00002°
Longitude
-169.11404°
Altitude
753.57 km
Speed
7.468 km/s
True Right ascension
21h 02m 17s
True Declination
0° 00' 00"
Sunlit
Object was in full shadow at epoch
Visualization orbit readout
Latitude
Unknown
Longitude
Unknown
Altitude
Unknown
Speed
Unknown
Apparent Right ascension
Unknown
Apparent Declination
Unknown
Sunlit
N/A
Visualization observer readout
Local Sidereal Time
21:39:30
Azimuth
Unknown
Elevation
Unknown
Doppler factor
Unknown
Orbital elements
Apogee altitude
753.504 km
Perigee altitude
706.457 km
Semi-major axis
7,108.118 km
Eccentricity
0.00331
Inclination
98.9163°
RAAN
315.5742°
Arg. of periapsis
139.283°
True anomaly
220.83596°
Mean anomaly
221.0844°
Eccentric anomaly
220.9601°
Mean motion
3.62169 °/min
Orbital period
99.4 mins
BSTAR
0.0016828
Loading maneuver chart data...
Computing Atmospheric mass density...
Loading historical data...
Loading historical data...
Loading historical data...
Loading historical data...
Loading historical data...
Loading historical data...
Loading historical data...

Documentation

Showing up to 5 results
|